User: anonymous   Login
Location: Unspecified
(0.0000°N, 0.0000°E)
Time: 08:57:43
(UTC+00:00)
Language:

USA 82 - Orbit

View from above orbital plane
View from above orbital plane
View from above satellite
View from above satellite

Ground track
Ground track

The orbit data is extracted from the following two-line orbital elements,

1 22009U 92037A   17145.18229384 0.00000000  00000-0  00000-0 0    02
2 22009  11.8166  34.2800 0010317 274.0169  85.8772  0.98801196    05
Epoch (UTC): 25 May 2017 04:22:30
Eccentricity: 0.0010317
inclination: 11.8166°
perigee height: 36159 km
apogee height: 36247 km
right ascension of ascending node: 34.2800°
argument of perigee: 274.0169°
revolutions per day: 0.98801196
mean anomaly at epoch: 85.8772°
orbit number at epoch: 0

The dashed part of the orbit path shows where the satellite is in the earth's shadow,  

DLR